TimeEST,TemperatureF,Dew PointF,Humidity,Sea Level PressureIn,VisibilityMPH,Wind Direction,Wind SpeedMPH,Gust SpeedMPH,PrecipitationIn,Events,Conditions,WindDirDegrees,DateUTC
12:53 AM,52.0,44.1,74,30.22,-9999.0,Variable,3.5,-,N/A,,Unknown,0,2013-02-10 05:53:00
1:53 AM,51.1,44.1,77,30.22,-9999.0,Calm,Calm,-,N/A,,Unknown,0,2013-02-10 06:53:00
2:53 AM,51.1,44.1,77,30.21,-9999.0,Calm,Calm,-,N/A,,Unknown,0,2013-02-10 07:53:00
3:53 AM,51.1,45.0,80,30.21,-9999.0,ENE,3.5,-,N/A,,Unknown,70,2013-02-10 08:53:00
4:53 AM,51.1,46.0,83,30.20,-9999.0,Calm,Calm,-,N/A,,Unknown,0,2013-02-10 09:53:00
5:53 AM,51.1,46.9,86,30.20,-9999.0,Calm,Calm,-,N/A,,Unknown,0,2013-02-10 10:53:00
6:53 AM,51.1,46.9,86,30.22,-9999.0,ENE,3.5,-,N/A,,Unknown,70,2013-02-10 11:53:00
7:53 AM,53.1,48.9,86,30.25,-9999.0,Calm,Calm,-,N/A,,Unknown,0,2013-02-10 12:53:00
8:53 AM,57.0,51.1,81,30.27,-9999.0,Variable,3.5,-,N/A,,Unknown,0,2013-02-10 13:53:00
9:53 AM,66.0,53.1,63,30.27,-9999.0,SE,11.5,-,N/A,,Unknown,130,2013-02-10 14:53:00
10:53 AM,71.1,54.0,55,30.24,-9999.0,SE,9.2,-,N/A,,Unknown,140,2013-02-10 15:53:00
11:53 AM,73.0,55.0,53,30.25,-9999.0,ESE,8.1,17.3,N/A,,Unknown,120,2013-02-10 16:53:00
12:53 PM,75.9,55.0,48,30.22,-9999.0,SSE,8.1,-,N/A,,Unknown,150,2013-02-10 17:53:00
1:53 PM,77.0,55.9,48,30.20,-9999.0,SSE,6.9,-,N/A,,Unknown,150,2013-02-10 18:53:00
2:53 PM,78.1,55.9,46,30.18,-9999.0,SE,4.6,-,N/A,,Unknown,130,2013-02-10 19:53:00
3:53 PM,77.0,55.9,48,30.16,-9999.0,SSE,6.9,-,N/A,,Unknown,150,2013-02-10 20:53:00
4:53 PM,77.0,55.9,48,30.16,-9999.0,SSE,5.8,-,N/A,,Unknown,150,2013-02-10 21:53:00
5:53 PM,73.9,57.9,57,30.16,-9999.0,Calm,Calm,-,N/A,,Unknown,0,2013-02-10 22:53:00
6:53 PM,69.1,57.9,68,30.15,-9999.0,Calm,Calm,-,N/A,,Unknown,0,2013-02-10 23:53:00
7:53 PM,69.1,57.0,65,30.15,-9999.0,SSE,3.5,-,N/A,,Unknown,150,2013-02-11 00:53:00
8:53 PM,64.9,55.9,73,30.14,-9999.0,SSE,4.6,-,N/A,,Unknown,150,2013-02-11 01:53:00
9:53 PM,66.0,55.9,70,30.16,-9999.0,SSE,4.6,-,N/A,,Unknown,150,2013-02-11 02:53:00
10:53 PM,66.0,55.9,70,30.16,-9999.0,SSE,8.1,-,N/A,,Unknown,160,2013-02-11 03:53:00
11:53 PM,66.0,57.0,73,30.15,-9999.0,SSE,6.9,-,0.01,,Unknown,160,2013-02-11 04:53:00